Weather History for Las Vegas, NM

Change the Weather History Date:

Thursday, February 6, 2014

  Actual Average Record
Temperature  
Mean Temperature 19 °F -  
Max Temperature 35 °F 44 °F 66 °F (1950)
Min Temperature 3 °F 17 °F -15 °F (1982)
Degree Days  
Heating Degree Days 46    
Moisture  
Dew Point 11 °F    
Average Humidity 79    
Maximum Humidity 89    
Minimum Humidity 52    
Precipitation  
Precipitation 0.00 in - - ()
Sea Level Pressure  
Sea Level Pressure 30.07 in    
Wind  
Wind Speed 16 mph (South)    
Max Wind Speed 22 mph    
Max Gust Speed -    
Visibility 8 miles    
Events Rain    
Averages and records for this station are not official NWS values.
T = Trace of Precipitation, MM = Missing Value Source: NWS Daily Summary

Daily Weather History Graph

Daily Weather History Graph

Search for Another Location

Airport:

Trip Planner

Search our weather history database for the weather conditions in past years. The results will help you decide how hot, cold, wet, or windy it might be!

Date:

Astronomy

Feb. 06, 2014 Rise Set
Actual Time 6:56 AM MST 5:33 PM MST
Civil Twilight 6:29 AM MST 6:00 PM MST
Nautical Twilight 5:59 AM MST 6:30 PM MST
Astronomical Twilight 5:29 AM MST 7:00 PM MST
Moon 11:07 AM MST (2/6) 12:14 AM MST (2/6)
Length of Visible Light 11h 30m
Length of Day
10h 37m
Waxing Crescent, 50% of the Moon is Illuminated
Feb 6
Waxing Crescent
Feb 6
First Quarter
Feb 14
Full
Feb 22
Last Quarter
Mar 1
New

Hourly Weather History & Observations

Time (MST) Temp. Windchill Dew Point Humidity Pressure Visibility Wind Dir Wind Speed Gust Speed Precip Events Conditions
12:53 AM 3.0 °F -14.1 °F -0.0 °F 87% 30.28 in 6.0 mi South 12.7 mph - N/A   Overcast
1:53 AM 3.0 °F -16.1 °F -0.0 °F 87% 30.25 in 7.0 mi SSW 16.1 mph - 0.00 in   Overcast
2:53 AM 3.0 °F -14.1 °F -0.0 °F 87% 30.23 in 8.0 mi South 12.7 mph - 0.00 in   Overcast
3:05 AM 3.9 °F -15.6 °F -0.0 °F 84% 30.01 in 8.0 mi South 17.3 mph - N/A   Overcast
3:53 AM 3.9 °F -13.7 °F -0.0 °F 84% 30.23 in 8.0 mi SSW 13.8 mph - N/A   Overcast
4:53 AM 3.9 °F -13.0 °F -0.0 °F 84% 30.22 in 7.0 mi South 12.7 mph - N/A   Overcast
5:53 AM 3.9 °F -13.7 °F -0.0 °F 84% 30.23 in 7.0 mi South 13.8 mph - 0.00 in   Overcast
6:53 AM 3.9 °F -16.6 °F 1.0 °F 88% 30.27 in 9.0 mi SSW 19.6 mph - N/A   Overcast
7:48 AM 5.0 °F -12.3 °F 1.4 °F 85% 30.01 in 4.0 mi SSW 13.8 mph - 0.00 in   Overcast
7:53 AM 6.1 °F -12.2 °F 1.9 °F 83% 30.25 in 4.0 mi SSW 16.1 mph - 0.00 in   Overcast
8:05 AM 6.1 °F -12.8 °F 3.0 °F 87% 30.00 in 4.0 mi SSW 17.3 mph - 0.00 in Rain Light Freezing Rain
8:17 AM 7.0 °F -9.8 °F 3.9 °F 87% 30.00 in 5.0 mi SSW 13.8 mph - 0.00 in   Overcast
8:53 AM 10.0 °F -7.1 °F 7.0 °F 87% 30.23 in 4.0 mi SSW 16.1 mph - 0.00 in   Overcast
9:53 AM 17.1 °F 1.0 °F 14.0 °F 88% 30.19 in 6.0 mi SSW 18.4 mph - 0.00 in   Overcast
10:37 AM 19.9 °F 5.2 °F 17.1 °F 89% 29.99 in 9.0 mi South 17.3 mph - 0.00 in   Scattered Clouds
10:53 AM 23.0 °F 9.2 °F 19.9 °F 88% 30.13 in 10.0 mi South 17.3 mph - 0.00 in   Partly Cloudy
11:22 AM 24.1 °F 9.0 °F 21.0 °F 88% 29.97 in 10.0 mi South 21.9 mph - N/A   Mostly Cloudy
11:45 AM 25.0 °F 10.2 °F 21.0 °F 85% 29.96 in 10.0 mi South 21.9 mph - N/A   Scattered Clouds
11:53 AM 26.1 °F 12.3 °F 21.9 °F 84% 30.09 in 10.0 mi South 19.6 mph - N/A   Scattered Clouds
12:53 PM 28.9 °F 15.4 °F 23.0 °F 78% 30.02 in 10.0 mi South 21.9 mph - N/A   Clear
1:53 PM 32.0 °F 20.1 °F 21.9 °F 66% 29.97 in 10.0 mi SSE 19.6 mph - N/A   Clear
2:53 PM 35.1 °F 23.8 °F 19.0 °F 52% 29.96 in 10.0 mi South 20.7 mph - N/A   Clear
3:53 PM 30.9 °F 18.1 °F 18.0 °F 59% 29.97 in 10.0 mi South 21.9 mph - N/A   Partly Cloudy
4:53 PM 30.9 °F 19.1 °F 17.1 °F 57% 29.97 in 10.0 mi SSW 18.4 mph - N/A   Clear
5:53 PM 30.0 °F 20.5 °F 16.0 °F 56% 29.99 in 10.0 mi SW 11.5 mph - N/A   Partly Cloudy
6:53 PM 27.0 °F 18.0 °F 17.1 °F 66% 30.01 in 10.0 mi South 9.2 mph - N/A   Scattered Clouds
7:53 PM 25.0 °F 13.6 °F 17.1 °F 72% 30.01 in 10.0 mi SSE 12.7 mph - N/A   Overcast
8:53 PM 23.0 °F 10.6 °F 17.1 °F 78% 30.00 in 10.0 mi South 13.8 mph - N/A   Mostly Cloudy
9:53 PM 24.1 °F 11.5 °F 17.1 °F 75% 29.95 in 10.0 mi South 15.0 mph - N/A   Clear
10:53 PM 24.1 °F 11.0 °F 17.1 °F 75% 29.92 in 10.0 mi South 16.1 mph - N/A   Clear
11:53 PM 19.9 °F 7.3 °F 15.1 °F 81% 29.92 in 10.0 mi South 12.7 mph - N/A   Clear